When you browse on this site, cookies collect data to enhance your experience and personalize the content and advertising you see.
Visit our Privacy Policy to learn more. By continuing to use the site, you agree to this use of cookies and data.
  • In Portugal
  • List of Countries
  • For 7 days
  • Water Temperature
  • Satellite Maps
  • Weather Map
  • Weather Widgets
  • user-avatar
    Login

    Hourly Weather Ondjiwa

    Today, 27 March, Wednesday

    Time Temperature Precipitation Wind Pressure Humidity
    00:00 +26°C° 0.5 mm 2 mps 669 mmHg 53%
    01:00 +25°C° 0.5 mm 2 mps 669 mmHg 59%
    02:00 +25°C° 0 mm 2 mps 669 mmHg 61%
    03:00 +24°C° 0 mm 2 mps 669 mmHg 63%
    04:00 +24°C° 0 mm 2 mps 669 mmHg 65%
    05:00 +24°C° 0.1 mm 2 mps 669 mmHg 66%
    06:00 +24°C° 0.1 mm 2 mps 669 mmHg 67%
    07:00 +23°C° 0.1 mm 1 mps 669 mmHg 68%
    08:00 +26°C° 0 mm 1 mps 670 mmHg 59%
    09:00 +28°C° 0 mm 2 mps 671 mmHg 50%
    10:00 +30°C° 0 mm 2 mps 671 mmHg 41%
    11:00 +33°C° 0 mm 3 mps 671 mmHg 37%
    12:00 +34°C° 0 mm 3 mps 671 mmHg 32%
    13:00 +36°C° 0 mm 3 mps 670 mmHg 28%
    14:00 +36°C° 0 mm 3 mps 670 mmHg 27%
    15:00 +35°C° 0 mm 3 mps 669 mmHg 27%
    16:00 +35°C° 0 mm 3 mps 669 mmHg 27%
    17:00 +34°C° 0 mm 3 mps 669 mmHg 31%
    18:00 +31°C° 0 mm 2 mps 669 mmHg 34%
    19:00 +30°C° 0 mm 2 mps 668 mmHg 37%
    20:00 +28°C° 0.1 mm 3 mps 669 mmHg 42%
    21:00 +27°C° 0.1 mm 3 mps 669 mmHg 48%
    22:00 +25°C° 0.1 mm 4 mps 669 mmHg 53%
    23:00 +25°C° 0 mm 4 mps 669 mmHg 55%

    Tomorrow, 28 March, Thursday

    Time Temperature Precipitation Wind Pressure Humidity
    00:00 +24°C° 0 mm 3 mps 670 mmHg 58%
    01:00 +24°C° 0 mm 3 mps 670 mmHg 60%
    02:00 +23°C° 0.3 mm 2 mps 669 mmHg 64%
    03:00 +23°C° 0.3 mm 2 mps 669 mmHg 68%
    04:00 +22°C° 0.3 mm 1 mps 669 mmHg 72%
    05:00 +22°C° 0.1 mm 1 mps 669 mmHg 73%
    06:00 +23°C° 0.1 mm 1 mps 669 mmHg 73%
    07:00 +23°C° 0.1 mm 2 mps 670 mmHg 73%
    08:00 +25°C° 0 mm 2 mps 670 mmHg 63%
    09:00 +28°C° 0 mm 2 mps 671 mmHg 53%
    10:00 +31°C° 0 mm 3 mps 671 mmHg 43%
    11:00 +33°C° 0 mm 3 mps 671 mmHg 38%
    12:00 +35°C° 0 mm 3 mps 670 mmHg 33%
    13:00 +36°C° 0 mm 4 mps 670 mmHg 29%
    14:00 +35°C° 0 mm 3 mps 669 mmHg 30%
    15:00 +35°C° 0 mm 3 mps 669 mmHg 31%
    16:00 +34°C° 0 mm 2 mps 668 mmHg 33%
    17:00 +32°C° 0 mm 2 mps 668 mmHg 36%
    18:00 +30°C° 0 mm 1 mps 668 mmHg 40%
    19:00 +29°C° 0 mm 1 mps 668 mmHg 43%
    20:00 +28°C° 0.3 mm 1 mps 668 mmHg 48%
    21:00 +27°C° 0.3 mm 1 mps 668 mmHg 53%
    22:00 +26°C° 0.3 mm 2 mps 669 mmHg 59%
    23:00 +25°C° 0.1 mm 2 mps 668 mmHg 61%

    Day after tomorrow, 29 March, Friday

    Time Temperature Precipitation Wind Pressure Humidity
    00:00 +25°C° 0.1 mm 2 mps 668 mmHg 63%
    01:00 +24°C° 0.1 mm 1 mps 668 mmHg 65%
    02:00 +24°C° 0 mm 1 mps 668 mmHg 66%
    03:00 +24°C° 0 mm 1 mps 667 mmHg 67%
    04:00 +23°C° 0 mm 1 mps 667 mmHg 69%
    05:00 +24°C° 0 mm 1 mps 667 mmHg 68%
    06:00 +24°C° 0 mm 1 mps 668 mmHg 68%
    07:00 +24°C° 0 mm 2 mps 668 mmHg 68%
    08:00 +27°C° 0 mm 2 mps 669 mmHg 58%
    09:00 +29°C° 0 mm 2 mps 670 mmHg 49%
    10:00 +32°C° 0 mm 2 mps 670 mmHg 39%
    11:00 +34°C° 0 mm 2 mps 670 mmHg 35%
    12:00 +34°C° 0 mm 3 mps 669 mmHg 31%
    13:00 +35°C° 0 mm 3 mps 668 mmHg 28%
    14:00 +35°C° 0 mm 3 mps 668 mmHg 27%
    15:00 +35°C° 0 mm 3 mps 667 mmHg 27%
    16:00 +35°C° 0 mm 2 mps 667 mmHg 27%
    17:00 +34°C° 0 mm 2 mps 667 mmHg 29%
    18:00 +32°C° 0 mm 2 mps 667 mmHg 31%
    19:00 +30°C° 0 mm 2 mps 667 mmHg 33%
    20:00 +30°C° 0 mm 2 mps 667 mmHg 35%
    21:00 +29°C° 0 mm 2 mps 668 mmHg 37%
    22:00 +28°C° 0 mm 2 mps 668 mmHg 38%
    23:00 +27°C° 0 mm 2 mps 668 mmHg 41%

    30 March, Saturday

    Time Temperature Precipitation Wind Pressure Humidity
    00:00 +27°C° 0 mm 2 mps 667 mmHg 43%
    01:00 +26°C° 0 mm 2 mps 667 mmHg 45%
    02:00 +26°C° 0 mm 2 mps 667 mmHg 46%
    03:00 +25°C° 0 mm 1 mps 666 mmHg 48%
    04:00 +25°C° 0 mm 1 mps 666 mmHg 49%
    05:00 +25°C° 0 mm 1 mps 667 mmHg 50%
    06:00 +25°C° 0 mm 1 mps 667 mmHg 51%
    07:00 +25°C° 0 mm 1 mps 668 mmHg 52%
    08:00 +26°C° 0 mm 1 mps 668 mmHg 49%
    09:00 +27°C° 0 mm 2 mps 668 mmHg 47%
    10:00 +28°C° 0 mm 2 mps 669 mmHg 44%
    11:00 +31°C° 0 mm 2 mps 668 mmHg 38%
    12:00 +34°C° 0 mm 2 mps 668 mmHg 32%
    13:00 +37°C° 0 mm 2 mps 668 mmHg 25%
    14:00 +36°C° 0 mm 2 mps 667 mmHg 27%
    15:00 +35°C° 0 mm 2 mps 667 mmHg 29%
    16:00 +35°C° 0 mm 2 mps 666 mmHg 30%
    17:00 +32°C° 0 mm 2 mps 666 mmHg 33%
    18:00 +30°C° 0 mm 1 mps 666 mmHg 36%
    19:00 +27°C° 0 mm 0 mps 666 mmHg 39%
    20:00 +28°C° 0 mm 1 mps 667 mmHg 41%
    21:00 +28°C° 0 mm 1 mps 667 mmHg 42%
    22:00 +27°C° 0 mm 1 mps 667 mmHg 43%
    23:00 +27°C° 0 mm 2 mps 667 mmHg 46%

    31 March, Sunday

    Time Temperature Precipitation Wind Pressure Humidity
    00:00 +26°C° 0 mm 2 mps 667 mmHg 49%
    01:00 +26°C° 0 mm 3 mps 666 mmHg 51%
    02:00 +25°C° 0 mm 3 mps 666 mmHg 55%
    03:00 +25°C° 0 mm 2 mps 666 mmHg 58%
    04:00 +24°C° 0 mm 2 mps 666 mmHg 61%
    05:00 +24°C° 0 mm 2 mps 667 mmHg 61%
    06:00 +24°C° 0 mm 1 mps 667 mmHg 62%
    07:00 +24°C° 0 mm 1 mps 668 mmHg 62%
    08:00 +27°C° 0 mm 1 mps 669 mmHg 54%
    09:00 +30°C° 0 mm 1 mps 669 mmHg 45%
    10:00 +33°C° 0 mm 1 mps 670 mmHg 37%
    11:00 +35°C° 0 mm 2 mps 669 mmHg 34%
    12:00 +36°C° 0 mm 2 mps 669 mmHg 31%
    13:00 +36°C° 0 mm 2 mps 668 mmHg 28%
    14:00 +35°C° 0 mm 2 mps 667 mmHg 31%
    15:00 +34°C° 0 mm 3 mps 667 mmHg 35%
    16:00 +33°C° 0 mm 3 mps 667 mmHg 38%
    17:00 +30°C° 0 mm 2 mps 667 mmHg 43%
    18:00 +29°C° 0 mm 2 mps 667 mmHg 49%
    19:00 +27°C° 0 mm 1 mps 666 mmHg 54%
    20:00 +26°C° 0.3 mm 1 mps 667 mmHg 57%
    21:00 +25°C° 0.3 mm 1 mps 667 mmHg 60%
    22:00 +25°C° 0.3 mm 2 mps 668 mmHg 63%
    23:00 +24°C° 0.3 mm 2 mps 668 mmHg 67%

    1 April, Monday

    Time Temperature Precipitation Wind Pressure Humidity
    00:00 +23°C° 0.3 mm 2 mps 667 mmHg 70%
    01:00 +23°C° 0.3 mm 2 mps 667 mmHg 73%
    02:00 +23°C° 0.5 mm 2 mps 667 mmHg 75%
    03:00 +23°C° 0.5 mm 2 mps 667 mmHg 76%
    04:00 +22°C° 0.5 mm 1 mps 667 mmHg 78%
    05:00 +23°C° 0 mm 2 mps 667 mmHg 75%
    06:00 +23°C° 0 mm 2 mps 668 mmHg 73%
    07:00 +24°C° 0 mm 2 mps 668 mmHg 70%
    08:00 +26°C° 0 mm 3 mps 669 mmHg 61%
    09:00 +29°C° 0 mm 3 mps 669 mmHg 52%
    10:00 +32°C° 0 mm 4 mps 669 mmHg 42%
    11:00 +34°C° 0 mm 3 mps 669 mmHg 37%
    12:00 +35°C° 0 mm 3 mps 668 mmHg 32%
    13:00 +36°C° 0 mm 2 mps 668 mmHg 27%
    14:00 +36°C° 0 mm 2 mps 667 mmHg 28%
    15:00 +35°C° 0 mm 1 mps 667 mmHg 28%
    16:00 +32°C° 0 mm 0 mps 667 mmHg 28%
    17:00 +33°C° 0 mm 1 mps 667 mmHg 31%
    18:00 +31°C° 0 mm 1 mps 667 mmHg 34%
    19:00 +29°C° 0 mm 1 mps 667 mmHg 38%
    20:00 +29°C° 0 mm 1 mps 667 mmHg 40%
    21:00 +28°C° 0 mm 1 mps 667 mmHg 42%
    22:00 +27°C° 0 mm 2 mps 667 mmHg 44%
    23:00 +26°C° 0.3 mm 2 mps 667 mmHg 49%
    Show more